Regional Weather Roundup
Issued by NWS New Orleans/Baton Rouge, LA

Home | Current Version | Previous Version | Text Only | Print | Product List | Glossary On
Versions: 1 2 3 4 5 6 7 8 9 10 11 12 13 14 15 16 17 18 19 20 21 22 23 24 25 26 27 28 29 30 31 32 33 34 35 36 37 38 39 40 41 42 43 44 45 46 47 48 49 50
000
ASUS44 KLIX 051110
RWRLIX
NEW ORLEANS REGIONAL WEATHER ROUNDUP
NATIONAL WEATHER SERVICE NEW ORLEANS LA
500 AM CST THU MAR 05 2015

NOTE: "FAIR" INDICATES FEW OR NO CLOUDS BELOW 12,000 FEET WITH NO
      SIGNIFICANT WEATHER AND/OR OBSTRUCTIONS TO VISIBILITY.
      SKY/WX - SKY CONDITION AND SIGNIFICANT WEATHER.
      TMP - AIR TEMPERATURE.     DP    - DEWPOINT TEMPERATURE.
      RH  - RELATIVE HUMIDITY.   PRES  - PRESSURE.
      HI  - HEAT INDEX.          WCI   - WIND CHILL INDEX.

*  THESE STATIONS ARE NOT NWS OR FAA STATIONS AND ARE NOT UNDER
   NWS QUALITY CONTROL.

LAZ038-040-048-061>063-065>067-069-051200-
SOUTHEAST LOUISIANA

CITY           SKY/WX    TMP DP  RH WIND       PRES   REMARKS
N.O. AUDUBON     N/A     67  67 100 MISG        N/A
N.O. INTL ARPT CLOUDY    71  68  90 SW8       29.93R
N.O. LAKEFRONT MOCLDY    71  67  87 SW14      29.93R
SLIDELL        CLOUDY    70  69  97 W6        29.93R
BATON ROUGE    CLOUDY    40  37  89 N13G23    30.07R WCI  32
BOOTHVILLE     MOCLDY    68  68 100 S5        29.95S FOG
BELLE CHASSE   PTCLDY    71  67  87 SW9       29.93R
BOGALUSA*        N/A     52  47  83 N15G22    30.00R
GALLIANO*      MOSUNNY   67  66  96 S7        29.94R
NEW ROADS*     LGT RAIN  37  35  91 NW21G29   30.13R WCI  26
GONZALES*      LGT RAIN  45  45 100 NW20G28   30.02R
HAMMOND*       CLOUDY    46  45  93 N21       30.05R
HOUMA*         MOCLDY    71  69  95 SW7       29.94R
PORT FOURCHON* PTSUNNY   70  68  94 SW6       29.97S FOG

$$

MSZ070-080>082-051200-
SOUTHERN MISSISSIPPI

CITY           SKY/WX    TMP DP  RH WIND       PRES   REMARKS
MCCOMB         LGT RAIN  39  37  92 N17G24    30.07R WCI  30
GULFPORT       CLOUDY    68  67  96 SW6       29.93R FOG
BILOXI         FOG       65  65 100 SW9       29.92R VSB 1/2
PASCAGOULA     CLOUDY    67  67 100 S6        29.93S FOG

$$

COASTAL OBSERVATIONS
LAKE AND NEARSHORE STATIONS

STATION/POSITION TIME  TEMP    WIND        PRES    WAVE
                       AIR SEA DIR/SP/G            HT/PER
                 (UTC) (F)     (DEG/KT/KT) (MB)    (FT/S)
PASCAGOULA       1100   65     190/ 10/ 13 1012.8
WAVELAND YACHT   1100   68 62  240/  6/  9 1013.2
GRAND ISLE       1100   70 66  230/  6/  8 1014.2
SOUTHWEST PASS   1100   67 45  210/  4/  6 1014.4
NEW CANAL        1100   70     220/  7/ 12 1013.9
SHELL BEACH      1100   71 62  200/ 12/ 15 1013.1

OFFSHORE STATIONS

STATION/POSITION TIME  TEMP    WIND        PRES    WAVE
                       AIR SEA DIR/SP/G            HT/PER
                 (UTC) (F)     (DEG/KT/KT) (MB)    (FT/S)
64 S DAUPHIN ISL 1025   73 71  190/  8/  8 1014.4    5/ 8

$$



USA.gov is the U.S. government's official web portal to all federal, state and local government web resources and services.